SCP
0 0 0 0 0 0 0 0 0 0 0 0 0 1 1 1 1 2 2 2 2 2 2 2 2 2 3 3 2 1 1 1 1 1 1 1 0 0 0 0 0 0 0 1
0 0 0 0 0 0 0 0 0 0 0 0 0 0 1 1 1 1 2 2 2 2 2 2 2 3 3 2 2 1 1 1 1 1 1 1 0 0 0 0 0 0 0 1
0 0 0 0 0 0 0 0 0 0 0 0 0 0 1 1 1 1 1 1 1 2 2 2 2 3 2 2 1 1 0 0 0 0 0 0 0 0 0 0 0 0 0 0
0 0 0 0 0 0 0 0 0 0 0 0 0 0 1 1 1 1 1 1 1 1 2 2 2 2 2 1 1 0 0 0 0 0 0 0 0 0 0 0 0 0 0 0
0 0 0 0 0 0 0 0 0 0 0 0 0 0 0 1 1 1 1 1 1 1 1 1 1 1 1 0 0 0 0 0 0 0 0 0 0 0 0 0 0 0 0 0
0 0 0 0 0 0 0 0 0 0 0 0 0 0 0 0 1 1 1 1 1 1 1 1 1 1 0 0 0 0 0 0 0 0 0 0 0 0 0 0 0 0 0 0
0 0 0 0 0 0 0 0 0 0 0 0 0 0 0 0 0 1 1 1 1 1 1 1 1 0 0 0 0 0 0 0 0 0 0 0 0 0 0 0 0 0 0 0
0 0 0 0 0 0 0 0 0 0 0 0 0 0 0 0 0 0 1 1 1 1 1 1 1 1 0 0 0 0 0 0 0 0 0 0 0 0 0 0 0 0 0 0
0 0 0 0 0 0 0 0 0 0 0 0 0 0 0 0 0 0 1 1 1 1 1 1 1 1 1 0 0 0 0 0 0 0 0 0 0 0 0 0 0 0 0 0
0 0 0 0 0 0 0 0 0 0 0 0 0 0 0 0 0 1 1 1 2 2 1 1 1 1 1 0 0 0 0 0 0 0 0 0 0 0 0 0 0 0 0 0
0 0 0 0 0 0 0 0 0 0 0 0 0 0 0 0 1 1 1 1 2 2 1 1 1 1 1 1 1 1 1 1 1 0 0 0 0 0 0 0 0 0 0 0
1 1 0 0 0 0 0 0 0 0 0 0 0 0 0 0 1 1 1 1 1 2 1 1 1 1 1 1 1 1 1 1 1 0 0 0 0 0 0 0 0 0 0 0
1 1 0 0 0 0 0 0 0 0 0 0 0 0 0 0 0 1 1 1 1 2 1 1 1 1 1 1 1 1 1 1 1 0 0 0 0 0 1 1 1 1 1 0
1 1 0 0 0 0 0 0 0 0 0 0 0 0 0 0 0 0 1 1 2 2 2 1 1 1 2 2 2 2 2 1 1 0 0 0 1 1 1 1 1 1 1 1
1 1 1 0 0 0 0 0 0 0 0 0 0 0 0 0 0 0 1 1 2 2 2 2 2 2 3 3 3 3 2 1 1 1 1 1 1 1 1 2 2 2 2 1
1 1 1 0 0 0 0 0 0 0 0 0 0 0 0 0 0 1 1 1 2 2 2 2 2 2 3 3 3 3 2 1 1 1 1 1 1 1 2 2 2 3 2 2
1 1 1 0 0 0 0 1 1 1 1 1 1 1 1 0 0 1 1 1 1 2 2 2 2 2 3 3 3 2 2 1 1 1 1 1 1 2 2 2 3 3 3 2
1 1 1 1 0 0 1 1 1 1 1 1 1 1 1 1 0 1 1 1 1 1 2 2 2 2 2 2 2 1 1 1 2 2 2 1 1 2 2 2 2 2 2 2
1 1 1 1 0 0 1 1 1 1 1 1 1 1 1 1 0 0 1 1 1 1 2 2 2 1 1 1 1 1 1 1 2 2 2 1 1 1 1 2 1 1 1 1
1 1 1 1 0 0 1 1 1 1 1 1 1 1 1 1 1 1 1 1 1 1 2 1 1 1 1 1 1 1 1 1 2 2 2 2 1 1 1 1 1 1 1 1
1 1 1 1 0 1 1 1 1 1 1 1 1 1 1 1 1 1 1 1 2 2 2 1 1 1 1 1 1 1 1 2 2 2 2 2 1 1 1 1 1 1 1 1
1 1 1 1 1 1 1 1 1 1 1 1 1 1 1 1 1 1 1 1 2 2 2 2 2 2 1 1 1 1 1 2 2 2 2 2 1 1 1 1 1 1 1 1
1 1 1 1 1 1 1 1 1 1 1 1 1 1 1 1 1 1 1 1 2 2 2 2 2 2 2 1 1 1 2 2 2 2 2 2 1 1 1 1 1 1 1 1
1 1 1 1 1 1 1 1 1 1 1 1 1 1 1 1 1 1 1 1 1 1 1 2 2 2 2 1 1 1 2 2 2 2 2 2 2 1 1 1 1 1 1 1
1 1 1 1 1 1 1 1 1 1 1 1 1 1 1 1 1 1 1 1 1 1 1 1 2 2 2 1 1 2 2 3 2 2 2 2 1 1 1 2 2 1 1 1
1 1 1 1 1 1 1 1 1 1 1 1 1 1 1 1 1 1 1 2 2 1 1 1 1 1 2 1 1 2 2 2 2 2 2 1 1 1 2 2 1 1 0 0
Wind_Speed
8 10 8 5 6 6 4 4 2 1 2 4 4 3 6 8 9 9 9 9 9 9 9 9 8 8 7 7 7 6 6 5 3 3 3 3 4 3 3 4 4 4 3 3
9 10 6 4 4 6 6 5 3 4 4 4 3 4 5 8 9 9 10 11 11 11 10 10 9 8 8 7 7 6 6 5 3 3 3 2 3 2 3 3 4 3 3 2
13 3 4 7 7 7 6 5 4 3 5 5 5 6 8 9 9 10 10 11 12 12 12 12 11 9 9 8 7 5 5 5 4 4 4 4 3 3 3 3 3 3 3 3
11 6 6 7 8 8 5 3 4 5 7 4 5 4 8 11 11 12 12 13 13 13 13 12 12 11 10 9 8 7 6 5 5 4 3 3 2 2 3 1 3 3 3 3
9 8 9 8 6 6 1 3 5 6 6 5 6 6 5 10 11 14 15 15 15 15 14 14 13 11 10 9 8 7 7 6 5 4 4 3 3 3 3 3 4 2 3 2
9 6 7 5 3 5 7 6 6 7 8 6 2 5 3 8 10 12 15 16 16 15 15 14 13 12 10 10 8 8 7 6 6 5 4 3 4 3 3 3 3 2 3 2
11 10 7 7 8 9 9 8 6 6 6 2 3 5 1 4 7 10 14 16 17 16 15 15 14 13 12 11 10 9 8 7 6 5 5 4 4 4 4 3 3 1 2 2
12 11 12 11 10 8 11 10 6 5 4 1 5 4 2 5 7 9 11 15 16 16 16 15 15 14 13 13 12 11 10 8 7 6 5 4 5 4 3 2 1 1 0 2
9 7 8 9 8 9 8 9 6 8 5 5 2 2 4 7 9 11 13 15 16 16 16 16 16 15 14 13 13 12 11 9 8 7 6 5 4 2 2 3 3 2 1 1
9 7 8 8 8 6 7 5 5 6 5 5 2 3 2 9 12 13 15 16 16 16 16 16 15 15 14 13 12 12 11 10 9 8 7 6 5 4 4 3 2 1 1 1
11 9 8 11 12 11 9 8 8 6 6 7 4 1 4 5 9 13 15 16 16 17 17 16 15 14 14 13 13 12 11 11 9 8 7 6 6 5 5 4 3 3 2 2
10 9 9 11 5 4 9 10 9 7 6 6 6 1 6 4 8 11 13 15 16 16 16 16 15 15 14 14 14 13 12 11 10 9 8 7 6 6 5 5 4 3 3 3
6 8 10 9 8 8 9 9 10 8 6 7 7 1 7 6 8 10 12 14 15 15 15 15 15 14 14 14 13 13 12 11 10 10 9 8 7 6 5 4 4 4 3 3
4 8 11 9 5 7 10 10 10 11 9 8 8 4 5 7 9 11 13 14 15 15 15 15 15 14 14 13 13 13 12 12 11 10 9 8 7 6 6 5 5 4 4 4
6 9 10 9 6 6 8 9 11 13 12 11 8 7 5 6 9 11 14 15 16 16 16 16 16 15 14 14 13 13 12 12 11 10 9 8 8 7 6 6 6 5 4 4
6 8 8 9 8 8 9 10 11 13 12 12 11 9 5 4 7 10 14 16 16 17 17 17 17 16 16 15 14 13 12 12 11 11 10 9 8 8 7 7 6 6 5 4
6 7 8 9 7 9 12 11 12 12 11 11 12 9 4 6 9 11 14 16 16 17 17 18 17 17 16 15 14 14 13 12 12 11 10 9 9 8 8 7 7 6 6 5
7 8 7 8 7 12 5 2 6 10 11 11 10 8 7 7 7 9 11 14 15 16 16 16 16 16 15 15 14 13 13 12 12 11 10 10 9 9 8 8 7 7 6 6
8 8 7 8 10 10 6 4 5 8 8 6 8 7 6 4 6 8 10 12 13 14 15 15 15 16 15 15 14 14 13 13 12 12 11 10 10 9 9 8 8 7 6 6
7 8 9 8 9 8 2 2 1 6 7 1 3 4 4 6 8 6 9 11 11 11 12 13 14 14 14 14 14 14 14 13 13 12 11 10 10 9 9 8 7 7 6 7
8 8 10 10 9 5 4 2 4 7 2 5 4 2 3 5 3 3 8 10 10 11 12 13 14 13 14 14 14 14 13 13 12 11 10 10 10 9 9 7 7 7 7 7
6 6 7 7 9 3 4 0 2 5 5 5 5 3 3 2 1 3 7 9 10 11 12 13 13 12 12 14 14 13 13 12 11 10 10 10 9 9 8 8 7 7 7 8
4 3 3 3 1 4 3 3 4 5 5 5 5 3 3 3 3 4 6 8 9 11 11 12 13 12 12 13 13 13 12 11 11 10 10 9 9 8 7 8 8 8 8 8
2 1 4 4 2 1 2 4 4 5 5 5 4 2 3 4 4 5 6 7 8 9 10 11 12 12 12 12 12 11 11 11 11 11 10 9 9 9 9 7 8 8 7 7
2 3 4 5 3 3 1 3 5 6 5 4 3 2 1 2 3 4 5 7 8 8 9 10 11 11 12 12 11 10 10 11 10 10 9 9 9 8 7 8 7 8 7 5
2 3 5 4 3 4 4 5 6 5 4 4 3 1 1 1 3 4 5 6 7 8 9 9 10 11 11 11 11 10 10 10 10 9 9 8 7 7 7 7 8 10 10 7
Wind_Direction
203 230 233 240 247 284 294 273 256 126 141 214 205 188 163 167 176 167 158 155 151 141 137 139 142 138 132 126 123 120 111 110 126 125 129 126 120 115 104 95 90 94 90 93
214 228 235 242 233 234 240 246 221 154 164 225 198 198 172 177 186 179 170 165 159 152 150 152 152 150 145 138 130 131 130 124 136 105 98 99 103 115 97 92 91 86 85 80
232 228 196 215 214 223 235 252 236 193 167 199 215 203 178 178 189 184 180 173 169 166 164 162 161 160 155 148 144 131 126 126 113 121 134 137 146 163 145 131 116 88 83 76
236 224 207 221 224 236 230 222 222 203 220 198 228 252 172 178 186 191 187 182 178 174 172 169 168 168 165 157 149 139 138 132 127 147 140 161 166 138 108 118 101 109 95 83
217 214 224 233 230 234 220 173 203 219 243 251 215 262 158 175 194 193 190 186 184 181 177 175 174 172 169 162 155 147 142 139 136 135 137 167 143 127 133 130 115 133 111 96
241 224 240 230 199 194 152 166 185 217 237 240 210 260 184 180 201 188 185 185 185 183 179 177 175 173 171 168 162 154 148 145 146 148 138 141 122 130 135 144 137 161 131 120
219 213 196 184 171 172 200 219 221 216 222 213 127 252 255 151 180 183 179 181 182 182 180 179 178 177 176 175 171 164 159 156 157 156 151 148 145 155 160 172 143 177 144 131
219 209 193 199 214 199 212 241 269 287 292 161 172 248 96 135 164 174 174 176 178 180 181 181 182 180 179 179 176 173 166 164 165 163 158 158 169 182 151 147 154 147 72 73
226 212 172 193 217 225 208 232 271 274 277 276 197 209 179 160 172 177 175 175 179 181 181 182 182 181 180 180 179 176 170 168 169 168 165 167 173 170 136 157 202 162 126 133
246 233 180 171 191 215 256 228 211 251 283 278 226 235 186 170 182 181 181 180 179 180 181 182 181 181 180 179 176 174 172 171 171 173 180 167 171 173 179 200 159 134 158 140
235 236 189 188 210 201 193 213 240 255 277 288 297 28 80 172 180 182 183 181 179 180 180 180 180 179 179 176 173 174 174 174 176 180 179 172 176 176 183 190 184 185 195 193
224 237 223 209 193 257 225 232 227 246 241 259 285 61 108 164 176 181 180 178 178 180 179 177 176 175 178 177 174 175 176 178 179 180 182 182 178 183 191 187 186 191 201 217
201 230 223 199 191 199 221 224 232 245 254 251 265 115 128 157 174 179 178 174 175 177 177 173 173 176 178 177 177 176 179 180 180 179 185 185 186 186 194 192 190 199 208 222
238 241 248 244 232 196 205 208 217 231 243 245 251 269 178 184 186 182 180 176 175 177 177 175 174 177 178 177 179 179 181 179 180 182 187 187 191 191 193 194 197 203 212 221
233 241 245 261 261 244 234 221 212 227 249 264 264 261 251 212 199 187 181 178 179 179 180 180 178 177 177 178 180 181 181 179 181 185 190 189 192 192 197 198 202 207 216 223
233 251 243 241 234 238 245 240 231 234 248 256 264 267 268 210 193 184 183 183 185 185 185 184 182 179 180 180 181 179 181 180 182 189 193 190 192 193 199 203 206 209 218 230
222 231 237 240 222 233 240 237 236 232 237 249 255 261 232 202 197 194 190 190 191 190 187 185 184 183 182 182 181 180 180 179 184 190 192 189 194 197 200 206 208 214 220 226
243 238 240 246 230 242 247 259 257 252 252 252 260 268 246 232 209 201 196 195 194 191 187 185 184 182 181 179 178 180 177 179 185 190 192 192 196 199 200 207 213 219 226 232
232 234 242 244 239 246 235 229 248 249 253 259 261 262 251 222 201 201 197 196 194 189 185 182 183 179 177 177 175 176 178 182 188 192 193 194 197 200 203 209 214 221 228 234
202 226 243 238 250 251 242 103 267 253 243 354 294 267 234 203 220 190 172 184 185 180 176 175 175 173 173 174 173 178 182 185 192 192 193 193 196 202 207 210 216 221 229 238
194 208 230 240 243 246 42 81 211 238 360 12 339 299 230 215 291 79 154 168 170 168 165 166 167 170 170 169 172 181 184 188 191 189 189 192 195 202 208 210 215 224 232 238
224 219 221 234 242 231 60 150 282 352 353 340 329 301 246 226 140 130 146 155 158 159 160 163 164 166 165 168 174 181 186 186 184 185 187 190 196 205 201 206 216 225 234 235
248 290 279 266 292 47 28 349 342 325 316 321 312 298 246 222 192 159 149 151 155 157 159 163 162 160 163 171 178 181 181 178 179 182 187 192 196 205 211 212 216 222 225 241
180 287 268 262 251 333 342 334 334 323 316 318 308 273 223 209 186 170 158 153 154 155 156 160 161 161 164 171 179 181 173 174 178 184 188 193 200 206 209 223 228 233 236 240
304 248 258 256 283 280 335 344 340 333 328 327 322 314 245 205 179 165 155 153 153 152 155 161 163 164 165 169 175 176 168 171 181 188 192 199 205 213 218 221 236 244 246 258
287 286 286 301 332 311 338 342 337 333 342 346 343 11 32 160 157 151 145 145 148 149 151 158 161 162 162 166 170 170 168 176 186 192 198 205 210 208 220 225 226 221 237 234